Belleville, IL

4:38 PM CDT on June 25, 2017 (GMT -0500)
Scott Air Force Base-Midamerica

Weather History for KBLV - December, 2013

Change the Weather History Date:

Wednesday, December 4, 2013

  Actual Average Record
Temperature  
Mean Temperature 54 °F -  
Max Temperature 66 °F 48 °F 74 °F (1970)
Min Temperature 42 °F 29 °F 11 °F (1991)
Degree Days  
Heating Degree Days 11    
Growing Degree Days 4 (Base 50)    
Moisture  
Dew Point 52 °F    
Average Humidity 96    
Maximum Humidity 100    
Minimum Humidity 76    
Precipitation  
Precipitation 0.00 in - - ()
Sea Level Pressure  
Sea Level Pressure 29.66 in    
Wind  
Wind Speed 7 mph (SE)    
Max Wind Speed 23 mph    
Max Gust Speed 29 mph    
Visibility 5 miles    
Events Fog    
Averages and records for this station are not official NWS values.
T = Trace of Precipitation, MM = Missing Value Source: NWS Daily Summary

Daily Weather History Graph

Daily Weather History Graph

Search for Another Location

Airport or City:

Trip Planner

Search our weather history database for the weather conditions in past years. The results will help you decide how hot, cold, wet, or windy it might be!

Date:

Astronomy

Dec. 04, 2013 Rise Set
Actual Time 7:01 AM CST 4:38 PM CST
Civil Twilight 6:31 AM CST 5:07 PM CST
Nautical Twilight 5:58 AM CST 5:40 PM CST
Astronomical Twilight 5:26 AM CST 6:12 PM CST
Moon 8:29 AM CST (12/4) 6:48 PM CST (12/4)
Length of Visible Light 10h 36m
Length of Day
9h 37m
Waxing Crescent, 4% of the Moon is Illuminated
Dec 4
Waxing Crescent
Dec 9
First Quarter
Dec 17
Full
Dec 25
Last Quarter
Jan 1
New

Hourly Weather History & Observations

Time (CST) Temp. Windchill Dew Point Humidity Pressure Visibility Wind Dir Wind Speed Gust Speed Precip Events Conditions
12:03 AM 42.8 °F - 42.8 °F 100% 29.70 in 4.0 mi Calm Calm - N/A   Overcast
12:18 AM 44.6 °F - 44.6 °F 100% 29.70 in 4.0 mi North 2.3 mph - N/A   Overcast
12:23 AM 44.6 °F - 44.6 °F 100% 29.70 in 5.0 mi North 2.3 mph - N/A   Overcast
12:43 AM 44.6 °F 43.1 °F 44.6 °F 100% 29.70 in 5.0 mi NE 3.5 mph - N/A   Overcast
12:58 AM 45.0 °F - 45.0 °F 100% 29.71 in 4.0 mi ENE 2.3 mph - N/A   Overcast
1:08 AM 44.6 °F 42.2 °F 44.6 °F 100% 29.69 in 4.0 mi East 4.6 mph - N/A   Overcast
1:18 AM 46.4 °F 45.2 °F 46.4 °F 100% 29.69 in 5.0 mi ESE 3.5 mph - N/A   Overcast
1:58 AM 47.7 °F - 47.7 °F 100% 29.69 in 8.0 mi ESE 5.8 mph - N/A   Overcast
2:03 AM 48.2 °F - 48.2 °F 100% 29.68 in 8.0 mi ESE 5.8 mph - N/A   Overcast
2:08 AM 48.2 °F - 48.2 °F 100% 29.68 in 8.0 mi ESE 8.1 mph - N/A   Overcast
2:58 AM 48.4 °F - 48.4 °F 100% 29.68 in 8.0 mi ESE 6.9 mph - N/A   Overcast
3:03 AM 48.2 °F - 48.2 °F 100% 29.67 in 8.0 mi ESE 6.9 mph - N/A   Overcast
3:13 AM 48.2 °F - 48.2 °F 100% 29.66 in 8.0 mi ESE 9.2 mph - N/A   Overcast
3:48 AM 50.0 °F - 50.0 °F 100% 29.66 in 7.0 mi ESE 6.9 mph - N/A   Overcast
3:58 AM 49.3 °F - 49.3 °F 100% 29.67 in 7.0 mi East 5.8 mph - N/A   Overcast
4:03 AM 50.0 °F - 50.0 °F 100% 29.66 in 7.0 mi East 4.6 mph - N/A   Overcast
4:08 AM 50.0 °F - 50.0 °F 100% 29.66 in 7.0 mi East 3.5 mph - N/A   Overcast
4:38 AM 50.0 °F - 50.0 °F 100% 29.66 in 6.0 mi East 3.5 mph - N/A   Overcast
4:48 AM 50.0 °F - 50.0 °F 100% 29.66 in 4.0 mi ESE 5.8 mph - N/A   Overcast
4:58 AM 50.2 °F - 50.2 °F 100% 29.67 in 1.8 mi ESE 8.1 mph - N/A   Overcast
5:03 AM 50.0 °F - 50.0 °F 100% 29.66 in 1.0 mi ESE 9.2 mph - N/A   Overcast
5:08 AM 50.0 °F - 50.0 °F 100% 29.65 in 0.8 mi East 10.4 mph - N/A   Mist
5:13 AM 50.0 °F - 50.0 °F 100% 29.65 in 1.0 mi East 8.1 mph - N/A   Overcast
5:18 AM 50.0 °F - 50.0 °F 100% 29.66 in 1.2 mi East 8.1 mph - N/A   Overcast
5:28 AM 51.8 °F - 51.8 °F 100% 29.66 in 1.5 mi ESE 6.9 mph - N/A   Overcast
5:38 AM 51.8 °F - 51.8 °F 100% 29.66 in 1.2 mi ESE 8.1 mph - N/A   Overcast
5:58 AM 51.1 °F - 51.1 °F 100% 29.68 in 1.5 mi East 5.8 mph - N/A   Overcast
6:08 AM 51.8 °F - 51.8 °F 100% 29.67 in 1.2 mi East 5.8 mph - N/A   Overcast
6:13 AM 50.0 °F - 50.0 °F 100% 29.66 in 1.2 mi East 5.8 mph - N/A   Overcast
6:18 AM 50.0 °F - 50.0 °F 100% 29.66 in 1.0 mi East 5.8 mph - N/A   Overcast
6:28 AM 50.0 °F - 50.0 °F 100% 29.66 in 1.0 mi East 5.8 mph - N/A   Overcast
6:48 AM 51.8 °F - 51.8 °F 100% 29.65 in 1.0 mi East 6.9 mph - N/A   Mist
6:53 AM 51.8 °F - 51.8 °F 100% 29.65 in 1.2 mi East 6.9 mph - N/A   Overcast
6:58 AM 50.9 °F - 50.9 °F 100% 29.66 in 1.2 mi East 6.9 mph - N/A   Overcast
7:03 AM 51.8 °F - 51.8 °F 100% 29.65 in 1.0 mi East 5.8 mph - N/A   Overcast
7:08 AM 51.8 °F - 51.8 °F 100% 29.65 in 0.5 mi East 5.8 mph - N/A   Overcast
7:23 AM 51.8 °F - 51.8 °F 100% 29.65 in 0.2 mi ESE 6.9 mph - N/A Fog Fog
7:38 AM 51.8 °F - 51.8 °F 100% 29.65 in 0.8 mi East 4.6 mph - N/A   Overcast
7:48 AM 51.8 °F - 51.8 °F 100% 29.65 in 0.5 mi ENE 1.2 mph - N/A Fog Fog
7:58 AM 51.4 °F - 51.4 °F 100% 29.67 in 0.5 mi East 3.5 mph - N/A Fog Fog
8:03 AM 51.8 °F - 51.8 °F 100% 29.66 in 0.2 mi East 3.5 mph - N/A Fog Fog
8:23 AM 51.8 °F - 51.8 °F 100% 29.65 in 0.2 mi ESE 4.6 mph - N/A Fog Fog
8:58 AM 52.2 °F - 52.2 °F 100% 29.65 in 0.2 mi SE 5.8 mph - N/A Fog Fog
9:13 AM 51.8 °F - 51.8 °F 100% 29.65 in 0.2 mi SSE 5.8 mph - N/A Fog Fog
9:38 AM 53.6 °F - 53.6 °F 100% 29.64 in 0.2 mi SSE 8.1 mph - N/A Fog Fog
9:48 AM 55.4 °F - 55.4 °F 100% 29.64 in 0.5 mi SSE 10.4 mph - N/A Fog Fog
9:53 AM 55.4 °F - 55.4 °F 100% 29.64 in 0.8 mi SSE 11.5 mph - N/A   Mist
9:58 AM 55.4 °F - 55.4 °F 100% 29.64 in 1.5 mi SSE 12.7 mph - N/A   Overcast
10:03 AM 55.4 °F - 55.4 °F 100% 29.63 in 2.5 mi South 15.0 mph - N/A   Overcast
10:08 AM 55.4 °F - 55.4 °F 100% 29.64 in 4.0 mi South 13.8 mph - N/A   Overcast
10:13 AM 57.2 °F - 57.2 °F 100% 29.64 in 6.0 mi SSE 12.7 mph - N/A   Overcast
10:18 AM 57.2 °F - 57.2 °F 100% 29.63 in 6.0 mi SSE 12.7 mph - N/A   Overcast
10:23 AM 57.2 °F - 57.2 °F 100% 29.62 in 6.0 mi SSE 15.0 mph - N/A   Overcast
10:53 AM 57.2 °F - 57.2 °F 100% 29.61 in 8.0 mi SSE 13.8 mph - N/A   Overcast
10:58 AM 57.6 °F - 57.6 °F 100% 29.62 in 9.0 mi South 12.7 mph - N/A   Overcast
11:08 AM 57.2 °F - 57.2 °F 100% 29.60 in 10.0 mi South 15.0 mph - N/A   Overcast
11:13 AM 59.0 °F - 59.0 °F 100% 29.60 in 10.0 mi SSE 13.8 mph - N/A   Overcast
11:43 AM 60.8 °F - 60.8 °F 100% 29.59 in 10.0 mi South 17.3 mph 24.2 mph N/A   Overcast
11:58 AM 60.4 °F - 60.3 °F 99% 29.58 in 10.0 mi South 17.3 mph - N/A   Overcast
12:58 PM 62.1 °F - 59.4 °F 91% 29.57 in 10.0 mi South 15.0 mph 21.9 mph N/A   Mostly Cloudy
1:23 PM 64.4 °F - 59.0 °F 83% 29.54 in 10.0 mi South 23.0 mph 26.5 mph N/A   Scattered Clouds
1:58 PM 66.0 °F - 58.3 °F 76% 29.55 in 10.0 mi South 16.1 mph - N/A   Partly Cloudy
2:58 PM 66.0 °F - 58.1 °F 76% 29.55 in 10.0 mi South 16.1 mph 28.8 mph N/A   Clear
3:33 PM 66.2 °F - 59.0 °F 78% 29.56 in 10.0 mi South 13.8 mph - N/A   Mostly Cloudy
3:38 PM 66.2 °F - 59.0 °F 78% 29.57 in 10.0 mi South 13.8 mph - N/A   Scattered Clouds
3:58 PM 64.9 °F - 57.9 °F 78% 29.59 in 10.0 mi SSW 13.8 mph - N/A   Partly Cloudy
4:58 PM 62.8 °F - 57.2 °F 82% 29.63 in 10.0 mi South 10.4 mph - N/A   Scattered Clouds
5:58 PM 59.7 °F - 57.6 °F 93% 29.65 in 10.0 mi South 8.1 mph - N/A   Clear
6:58 PM 59.5 °F - 59.0 °F 98% 29.68 in 10.0 mi SSW 5.8 mph - N/A   Overcast
7:32 PM 59.0 °F - 53.6 °F 82% 29.70 in 10.0 mi NW 18.4 mph - N/A   Overcast
7:58 PM 55.4 °F - 50.0 °F 82% 29.72 in 10.0 mi WNW 10.4 mph - N/A   Partly Cloudy
8:58 PM 51.6 °F - 48.4 °F 89% 29.77 in 10.0 mi WNW 11.5 mph - N/A   Clear
9:43 PM 51.8 °F - 46.4 °F 82% 29.79 in 10.0 mi West 18.4 mph - N/A   Mostly Cloudy
9:58 PM 51.1 °F - 45.0 °F 80% 29.81 in 10.0 mi West 17.3 mph 25.3 mph N/A   Overcast
10:23 PM 48.2 °F - 42.8 °F 82% 29.81 in 10.0 mi West 12.7 mph - N/A   Scattered Clouds
10:58 PM 45.3 °F 40.1 °F 42.8 °F 91% 29.83 in 10.0 mi WNW 10.4 mph - N/A   Clear
11:28 PM 44.6 °F 39.2 °F 41.0 °F 87% 29.83 in 10.0 mi WNW 10.4 mph - N/A   Mostly Cloudy
11:58 PM 44.8 °F 38.3 °F 39.0 °F 80% 29.86 in 10.0 mi WNW 13.8 mph - N/A   Overcast